Location: Unnamed
(51.5169°N, 0.1311°W)
Time: 07:14:38
(UTC+01:00)

Vanguard 1 - Pass Details

Date: 16 August 2024
Orbit: 649 x 3825 km, 34.2° (Epoch: 16 September)

Event Time Altitude Azimuth Distance (km) Brightness Sun altitude
Rises 23:07:22 0° 232° (SW) 3,957 13.1 -20.3°
Reaches altitude 10° 23:10:02 10° 221° (SW) 3,307 12.6 -20.5°
Maximum altitude 23:17:15 30° 163° (SSE) 2,886 11.8 -21.1°
Enters shadow 23:18:06 30° 156° (SSE) 2,988 11.9 -21.1°
Exits shadow 23:26:55 14° 115° (ESE) 4,925 13.2 -21.8°
Drops below altitude 10° 23:28:51 10° 111° (ESE) 5,431 13.4 -21.9°
Sets 23:34:49 0° 103° (ESE) 6,973 14.1 -22.3°
